sat.trackr.live / text

‹ back to catalog

ONEWEB-0263

NORAD 48981 · 2021-060Q

PAYLOAD ACTIVE UNKNOWN

§ Identity

Operator
Country
UK
Launch date
2021-07-01
Launch site
VOSTO
Launch vehicle
Mass (kg)
RCS (m²)

Purposes: comms

External: N2YO · Heavens-Above · Gunter

§ Orbital elements

Epoch: 2026-09-03T21:07:06.758112Z

Period
109.37 min
Inclination
87.9120°
Eccentricity
0.0002287
Mean motion
13.16592656 rev/d
Perigee alt
1,196.0 km
Apogee alt
1,199.5 km
Semi-major
7,575.9 km
B*
6.6077e-6
RAAN
213.1531°
Arg perigee
74.7634°
Mean anomaly
285.3750°
Rev number
24,994

§ Raw data

ONEWEB-02631 48981U 21060Q   26246.87993933  .00000015  00000+0  66077-5 0  99962 48981  87.9120 213.1531 0002287  74.7634 285.3750 13.16592656249947

JSON: /api/v1/satellites/48981 · /tle

For live sub-satellite position, see the globe view (requires WebGL).

§ Visibility from observer

Set your observer location to see the next 7 days of passes ≥ 10°. The values pass through the URL so the page stays shareable.

No JS? Fill the form by hand. The geolocation button needs JavaScript.